W2GUX Weather Reports


time (UTC)temp
C
wind
direction
speed
KPH
gust
KPH
rain 1hr
cm
rain 24hr
cm
rain mn
cm
humidity
%
barometer
mb
20260510190503 24 216 4.8 11.3 0.00 0.41 0.00 43 1009.4
20260510190004 24 219 4.8 17.7 0.00 0.41 0.00 43 1009.5
20260510185503 24 302 3.2 17.7 0.00 0.41 0.00 43 1009.5
20260510185003 24 323 4.8 11.3 0.00 0.41 0.00 44 1009.5
20260510184503 24 297 3.2 12.9 0.00 0.41 0.00 44 1009.6
20260510184003 23 246 3.2 16.1 0.00 0.41 0.00 46 1009.6
20260510183504 23 215 6.4 16.1 0.00 0.41 0.00 47 1009.6
20260510183003 23 206 8.0 17.7 0.00 0.43 0.00 48 1009.6
20260510182503 23 208 6.4 17.7 0.00 0.43 0.00 49 1009.7
20260510182003 23 244 4.8 14.5 0.00 0.43 0.00 48 1009.6
20260510181503 24 220 6.4 16.1 0.00 0.43 0.00 48 1009.6
20260510181003 24 191 6.4 16.1 0.00 0.43 0.00 48 1009.7
20260510180504 24 228 4.8 17.7 0.00 0.46 0.00 49 1009.5
20260510180004 24 246 6.4 22.5 0.00 0.51 0.00 49 1009.6
20260510175503 23 214 4.8 22.5 0.00 0.53 0.00 48 1009.6
20260510175003 23 200 3.2 14.5 0.00 0.53 0.00 50 1009.5
20260510174504 23 205 3.2 11.3 0.00 0.53 0.00 52 1009.5
20260510174003 23 195 3.2 11.3 0.00 0.56 0.00 53 1009.4
20260510173503 23 189 1.6 9.7 0.00 0.56 0.00 52 1009.5
20260510173003 23 178 1.6 8.0 0.00 0.56 0.00 56 1009.5
20260510172503 23 199 1.6 8.0 0.00 0.56 0.00 55 1009.6
20260510172004 22 199 3.2 9.7 0.00 0.56 0.00 55 1009.7
20260510171504 22 226 4.8 11.3 0.00 0.56 0.00 55 1009.7
20260510171003 22 228 4.8 11.3 0.00 0.56 0.00 56 1009.7
20260510170503 22 209 3.2 11.3 0.00 0.56 0.00 55 1009.8
20260510170003 22 250 3.2 9.7 0.00 0.56 0.00 56 1009.8
20260510165504 22 271 3.2 11.3 0.00 0.56 0.00 55 1009.9
20260510165004 22 255 1.6 11.3 0.00 0.56 0.00 58 1009.8
20260510164503 21 152 1.6 8.0 0.00 0.56 0.00 61 1010.0
20260510164004 21 183 3.2 11.3 0.00 0.56 0.00 59 1010.1
20260510163504 21 191 3.2 11.3 0.00 0.56 0.00 59 1010.1
20260510163003 21 207 3.2 11.3 0.00 0.56 0.00 59 1010.1
20260510162503 21 225 3.2 11.3 0.00 0.56 0.00 60 1010.2
20260510162003 21 226 1.6 11.3 0.00 0.56 0.00 60 1010.2
20260510161503 21 278 3.2 11.3 0.00 0.56 0.00 61 1010.2
20260510161004 21 243 3.2 11.3 0.00 0.56 0.00 61 1010.2
20260510160504 21 199 3.2 11.3 0.00 0.56 0.00 62 1010.2
20260510160003 20 193 3.2 11.3 0.00 0.56 0.00 61 1010.2
20260510155503 20 192 3.2 11.3 0.00 0.56 0.00 63 1010.1
20260510155004 20 202 4.8 12.9 0.00 0.56 0.00 64 1010.1
20260510154503 20 204 4.8 12.9 0.00 0.56 0.00 66 1010.3
20260510154003 19 193 3.2 12.9 0.00 0.56 0.00 68 1010.3
20260510153504 19 184 3.2 9.7 0.00 0.56 0.00 68 1010.4
20260510153004 19 152 1.6 9.7 0.00 0.56 0.00 69 1010.4
20260510152503 18 107 3.2 8.0 0.00 0.56 0.00 69 1010.4
20260510152003 18 150 3.2 11.3 0.00 0.56 0.00 71 1010.3
20260510151504 18 179 3.2 11.3 0.00 0.56 0.00 72 1010.3
20260510151003 18 176 1.6 11.3 0.00 0.56 0.00 72 1010.4
20260510150503 18 166 1.6 11.3 0.00 0.56 0.00 74 1010.5
20260510150004 17 179 1.6 4.8 0.00 0.56 0.00 76 1010.7
20260510145503 17 184 1.6 6.4 0.00 0.56 0.00 76 1010.8
20260510145003 16 174 1.6 6.4 0.00 0.56 0.00 78 1010.8
20260510144503 16 186 1.6 8.0 0.00 0.56 0.00 78 1010.8
20260510144003 16 190 1.6 8.0 0.00 0.56 0.00 79 1010.7
20260510143504 16 192 1.6 4.8 0.00 0.56 0.00 80 1010.7
20260510143003 16 189 3.2 11.3 0.00 0.56 0.00 81 1010.7
20260510142503 16 194 3.2 11.3 0.00 0.56 0.00 82 1010.7
20260510142004 15 202 1.6 8.0 0.00 0.56 0.00 84 1010.7
20260510141503 15 196 1.6 8.0 0.00 0.56 0.00 85 1010.7
20260510141003 15 193 3.2 8.0 0.00 0.56 0.00 86 1010.7
20260510140503 15 190 1.6 9.7 0.00 0.56 0.00 86 1010.7
20260510140004 15 189 1.6 9.7 0.00 0.56 0.00 88 1010.6
20260510135503 14 178 1.6 9.7 0.00 0.56 0.00 90 1010.6
20260510135003 14 141 0.0 4.8 0.00 0.56 0.00 91 1010.6
20260510134503 14 103 0.0 3.2 0.00 0.56 0.00 92 1010.6
20260510134003 14 98 0.0 3.2 0.00 0.56 0.00 93 1010.6
20260510133504 13 96 0.0 3.2 0.00 0.56 0.00 93 1010.7
20260510133003 13 96 0.0 3.2 0.00 0.56 0.00 94 1010.6
20260510132503 13 96 0.0 1.6 0.00 0.56 0.00 94 1010.6
20260510132004 13 95 0.0 3.2 0.00 0.56 0.00 94 1010.6
20260510131503 13 81 1.6 8.0 0.00 0.56 0.00 95 1010.5
20260510131003 13 67 1.6 8.0 0.00 0.56 0.00 95 1010.3
20260510130503 13 34 0.0 4.8 0.00 0.56 0.00 95 1010.3
20260510130004 13 21 0.0 4.8 0.00 0.56 0.00 95 1010.3
20260510125503 13 12 0.0 4.8 0.00 0.56 0.00 96 1010.3
20260510125003 13 11 0.0 3.2 0.00 0.56 0.00 96 1010.2
20260510124503 12 11 0.0 1.6 0.00 0.56 0.00 96 1010.2
20260510124003 12 0 0.0 0.0 0.00 0.56 0.00 96 1010.3
20260510123503 12 12 0.0 1.6 0.00 0.56 0.00 96 1010.2
20260510123003 12 12 0.0 1.6 0.00 0.56 0.00 96 1010.2
20260510122503 12 0 0.0 0.0 0.00 0.56 0.00 96 1010.1
20260510122004 12 0 0.0 0.0 0.00 0.56 0.00 96 1010.0
20260510121003 12 12 0.0 1.6 0.00 0.56 0.00 96 1010.0
20260510120004 12 11 0.0 1.6 0.00 0.56 0.00 96 1009.8
20260510115504 12 11 0.0 1.6 0.00 0.56 0.00 96 1009.7
20260510115003 12 12 0.0 1.6 0.00 0.56 0.00 96 1009.7
20260510114003 12 12 0.0 1.6 0.00 0.56 0.00 96 1009.7
20260510113503 12 12 0.0 1.6 0.00 0.56 0.00 96 1009.7
20260510113004 12 12 0.0 1.6 0.00 0.56 0.00 96 1009.8
20260510112504 12 12 0.0 1.6 0.00 0.56 0.00 96 1009.7
20260510112003 12 0 0.0 0.0 0.00 0.56 0.00 96 1009.5
20260510111503 12 0 0.0 0.0 0.00 0.56 0.00 96 1009.3
20260510111003 12 12 0.0 1.6 0.00 0.56 0.00 96 1009.3
20260510110004 11 0 0.0 0.0 0.00 0.56 0.00 96 1009.2
20260510105003 11 0 0.0 0.0 0.00 0.56 0.00 96 1009.1
20260510104503 11 0 0.0 0.0 0.00 0.56 0.00 96 1009.1
20260510104003 11 0 0.0 0.0 0.00 0.56 0.00 96 1009.1
20260510103504 11 0 0.0 0.0 0.00 0.56 0.00 96 1009.1
20260510103004 11 0 0.0 0.0 0.00 0.56 0.00 96 1009.2
20260510102503 11 0 0.0 0.0 0.00 0.56 0.00 96 1009.2
20260510102003 11 0 0.0 0.0 0.00 0.56 0.00 96 1009.2
20260510101503 11 0 0.0 0.0 0.00 0.56 0.00 96 1009.2
20260510101004 11 0 0.0 0.0 0.00 0.56 0.00 96 1009.2
20260510100504 11 0 0.0 0.0 0.00 0.56 0.00 96 1009.2
20260510100004 11 0 0.0 0.0 0.00 0.56 0.00 96 1009.2
20260510095504 11 0 0.0 0.0 0.00 0.56 0.00 96 1009.3
20260510095004 11 0 0.0 0.0 0.00 0.56 0.00 96 1009.3
20260510094503 11 0 0.0 0.0 0.00 0.56 0.00 96 1009.2
20260510094003 11 0 0.0 0.0 0.00 0.56 0.00 96 1009.2
20260510093503 11 0 0.0 0.0 0.00 0.56 0.00 96 1009.1
20260510093004 11 0 0.0 0.0 0.00 0.56 0.00 96 1009.2
20260510092504 11 0 0.0 0.0 0.00 0.56 0.00 96 1009.2
20260510092003 11 12 0.0 1.6 0.00 0.56 0.00 96 1009.3
20260510091503 11 12 0.0 1.6 0.00 0.56 0.00 96 1009.4
20260510091003 11 0 0.0 0.0 0.00 0.56 0.00 96 1009.4
20260510090504 11 0 0.0 0.0 0.00 0.56 0.00 96 1009.6
20260510090004 11 0 0.0 0.0 0.00 0.56 0.00 96 1009.5
20260510085503 11 0 0.0 0.0 0.00 0.56 0.00 96 1009.6
20260510085003 11 0 0.0 0.0 0.00 0.56 0.00 95 1009.7
20260510084503 11 11 0.0 1.6 0.00 0.56 0.00 95 1009.6
20260510084004 11 11 0.0 3.2 0.00 0.56 0.00 95 1009.6
20260510083504 11 11 0.0 3.2 0.00 0.56 0.00 95 1009.6
20260510082503 11 11 0.0 4.8 0.00 0.56 0.00 95 1009.5
20260510082003 11 7 0.0 4.8 0.00 0.56 0.00 95 1009.5
20260510081504 11 1 1.6 8.0 0.00 0.56 0.00 95 1009.5
20260510081004 11 358 1.6 8.0 0.00 0.56 0.00 95 1009.3
20260510080503 11 6 1.6 6.4 0.00 0.56 0.00 95 1009.3
20260510080003 11 96 1.6 6.4 0.00 0.56 0.00 96 1009.2
20260510074004 11 0 0.0 0.0 0.00 0.56 0.00 96 1008.5
20260510073503 11 0 0.0 0.0 0.00 0.56 0.00 96 1008.6
20260510073003 11 0 0.0 0.0 0.00 0.56 0.00 95 1008.6
20260510072003 11 0 0.0 0.0 0.00 0.56 0.00 95 1008.6
20260510071503 11 0 0.0 0.0 0.00 0.56 0.00 95 1008.6
20260510071004 11 0 0.0 0.0 0.00 0.56 0.00 95 1008.6
20260510070503 11 151 0.0 3.2 0.00 0.56 0.00 95 1008.7
20260510070004 11 151 0.0 3.2 0.00 0.56 0.00 95 1008.7
20260510065504 12 151 0.0 3.2 0.00 0.56 0.00 95 1008.7
20260510065004 11 0 0.0 0.0 0.00 0.56 0.00 95 1008.7
20260510064503 11 0 0.0 0.0 0.00 0.56 0.00 95 1008.7
20260510064003 11 0 0.0 0.0 0.00 0.56 0.00 95 1008.8
20260510063503 11 0 0.0 0.0 0.00 0.56 0.00 95 1008.7
20260510063003 11 0 0.0 0.0 0.00 0.56 0.00 95 1008.7
20260510062504 11 150 0.0 3.2 0.00 0.56 0.00 95 1008.7
20260510062003 11 150 0.0 3.2 0.00 0.56 0.00 95 1008.6
20260510061003 11 0 0.0 0.0 0.00 0.56 0.00 95 1008.5
20260510060503 11 0 0.0 0.0 0.00 0.56 0.00 95 1008.6
20260510060004 11 0 0.0 0.0 0.00 0.56 0.00 95 1008.5
20260510055503 11 0 0.0 0.0 0.00 0.56 0.00 95 1008.4
20260510055003 11 0 0.0 0.0 0.00 0.56 0.00 95 1008.4
20260510054503 11 0 0.0 0.0 0.00 0.56 0.00 95 1008.4
20260510054003 11 0 0.0 0.0 0.00 0.56 0.00 95 1008.3
20260510053004 11 0 0.0 0.0 0.00 0.56 0.00 95 1008.3
20260510052503 11 0 0.0 0.0 0.00 0.56 0.00 95 1008.5
20260510052003 11 0 0.0 0.0 0.00 0.56 0.00 95 1008.5
20260510051503 11 0 0.0 0.0 0.00 0.56 0.00 95 1008.5
20260510051003 11 0 0.0 0.0 0.00 0.56 0.00 95 1008.6
20260510050503 11 0 0.0 0.0 0.00 0.56 0.00 95 1008.6
20260510050004 11 0 0.0 0.0 0.00 0.56 0.00 95 1008.6
20260510045503 11 0 0.0 0.0 0.00 0.56 0.00 95 1008.6
20260510045003 11 0 0.0 0.0 0.00 0.56 0.00 95 1008.7
20260510044503 11 0 0.0 0.0 0.00 0.56 0.00 95 1008.6
20260510044004 11 0 0.0 0.0 0.00 0.56 0.00 95 1008.6
20260510043504 11 0 0.0 0.0 0.00 0.56 0.00 95 1008.7
20260510042503 12 0 0.0 0.0 0.00 0.56 0.00 95 1008.6
20260510042003 11 0 0.0 0.0 0.00 0.56 0.00 95 1008.7
20260510041504 11 0 0.0 0.0 0.00 0.56 0.00 95 1008.6
20260510041004 11 0 0.0 0.0 0.00 0.56 0.00 95 1008.6
20260510040503 11 0 0.0 0.0 0.00 0.56 0.00 95 1008.6
20260510035503 11 0 0.0 0.0 0.00 0.56 0.56 95 1008.5
20260510035003 11 0 0.0 0.0 0.00 0.56 0.56 95 1008.5
20260510034503 11 0 0.0 0.0 0.00 0.56 0.56 95 1008.5
20260510034004 11 0 0.0 0.0 0.00 0.56 0.56 94 1008.3
20260510033503 11 0 0.0 0.0 0.00 0.56 0.56 94 1008.4
20260510033003 11 0 0.0 0.0 0.00 0.56 0.56 94 1008.4
20260510032503 11 0 0.0 0.0 0.00 0.56 0.56 94 1008.3
20260510032003 11 0 0.0 0.0 0.00 0.56 0.56 94 1008.2
20260510031503 11 0 0.0 0.0 0.00 0.56 0.56 94 1008.2
20260510031004 11 0 0.0 0.0 0.00 0.56 0.56 94 1008.2
20260510030503 11 0 0.0 0.0 0.00 0.56 0.56 94 1008.2
20260510025503 11 0 0.0 0.0 0.00 0.56 0.56 94 1008.2
20260510025004 11 0 0.0 0.0 0.00 0.56 0.56 94 1008.2
20260510024504 11 0 0.0 0.0 0.00 0.56 0.56 94 1008.3
20260510024003 10 0 0.0 0.0 0.00 0.56 0.56 93 1008.4
20260510023503 10 0 0.0 0.0 0.00 0.56 0.56 93 1008.3
20260510023003 11 0 0.0 0.0 0.00 0.56 0.56 93 1008.5
20260510022504 11 0 0.0 0.0 0.00 0.56 0.56 93 1008.3
20260510022004 11 0 0.0 0.0 0.00 0.56 0.56 93 1008.4
20260510021503 11 0 0.0 0.0 0.00 0.56 0.56 93 1008.3
20260510021003 11 0 0.0 0.0 0.00 0.56 0.56 93 1008.3
20260510020503 11 0 0.0 0.0 0.00 0.56 0.56 93 1008.2
20260510015504 11 0 0.0 0.0 0.00 0.56 0.56 93 1008.3
20260510015003 11 0 0.0 0.0 0.00 0.56 0.56 93 1008.3
20260510014503 11 0 0.0 0.0 0.00 0.56 0.56 93 1008.2
20260510014003 11 0 0.0 0.0 0.00 0.56 0.56 93 1008.2
20260510013004 11 0 0.0 0.0 0.00 0.56 0.56 93 1008.3
20260510012504 11 0 0.0 0.0 0.00 0.56 0.56 93 1008.2
20260510012003 11 0 0.0 0.0 0.00 0.56 0.56 93 1008.1
20260510011503 11 0 0.0 0.0 0.00 0.56 0.56 93 1008.1
20260510011003 11 0 0.0 0.0 0.00 0.56 0.56 92 1008.0
20260510010504 11 0 0.0 0.0 0.00 0.56 0.56 92 1007.8
20260510010004 11 0 0.0 0.0 0.00 0.56 0.56 92 1007.7
20260510005503 11 0 0.0 0.0 0.00 0.56 0.56 92 1007.8
20260510005003 11 0 0.0 0.0 0.00 0.56 0.56 92 1007.8
20260510004504 12 0 0.0 0.0 0.00 0.56 0.56 92 1007.7
20260510004004 12 0 0.0 0.0 0.00 0.56 0.56 92 1007.6
20260510003004 12 0 0.0 0.0 0.00 0.56 0.56 92 1007.7
20260510002503 12 0 0.0 0.0 0.00 0.56 0.56 92 1007.7
20260510002003 12 0 0.0 0.0 0.00 0.56 0.56 92 1007.7
20260510001504 12 0 0.0 0.0 0.00 0.56 0.56 92 1007.8
20260510001004 12 0 0.0 0.0 0.00 0.56 0.56 92 1007.7
20260510000503 12 0 0.0 0.0 0.00 0.56 0.56 92 1007.7
20260510000003 12 0 0.0 0.0 0.00 0.56 0.56 92 1007.6
20260509235504 12 0 0.0 0.0 0.00 0.56 0.56 92 1007.6
20260509235003 12 0 0.0 0.0 0.00 0.56 0.56 91 1007.5
20260509234503 13 0 0.0 0.0 0.00 0.56 0.56 92 1007.5
20260509234003 13 0 0.0 0.0 0.00 0.56 0.56 91 1007.3
20260509233503 13 0 0.0 0.0 0.00 0.56 0.56 91 1007.4
20260509232504 13 151 0.0 1.6 0.03 0.56 0.56 91 1007.4
20260509231504 13 150 0.0 1.6 0.03 0.56 0.56 92 1007.2
20260509231003 13 150 0.0 3.2 0.03 0.56 0.56 92 1007.2
20260509230503 13 150 0.0 4.8 0.03 0.56 0.56 91 1007.4
20260509230004 13 152 0.0 4.8 0.03 0.56 0.56 91 1007.6
20260509225504 13 157 0.0 4.8 0.03 0.56 0.56 91 1007.8
20260509225003 13 170 0.0 3.2 0.03 0.56 0.56 91 1007.8
20260509224503 13 171 0.0 3.2 0.05 0.56 0.56 91 1007.9
20260509224003 13 171 0.0 3.2 0.05 0.56 0.56 91 1007.8
20260509223504 13 171 0.0 3.2 0.10 0.56 0.56 91 1007.7
20260509223004 13 171 0.0 3.2 0.10 0.53 0.53 91 1007.7
20260509222003 13 171 0.0 4.8 0.18 0.53 0.53 91 1007.7
20260509221503 13 170 0.0 3.2 0.20 0.53 0.53 91 1007.7
20260509221003 13 171 0.0 3.2 0.23 0.53 0.53 91 1007.7
20260509220504 13 173 0.0 1.6 0.25 0.53 0.53 90 1007.8
20260509220004 13 173 0.0 1.6 0.25 0.53 0.53 90 1008.1
20260509215503 13 173 0.0 1.6 0.30 0.53 0.53 90 1008.2
20260509215003 13 174 0.0 1.6 0.33 0.53 0.53 89 1008.1
20260509214504 13 174 0.0 1.6 0.30 0.51 0.51 89 1008.0
20260509213503 13 0 0.0 0.0 0.25 0.46 0.46 89 1008.2
20260509212503 13 0 0.0 0.0 0.20 0.38 0.38 88 1008.1
20260509212004 13 0 0.0 0.0 0.18 0.36 0.36 88 1008.1
20260509211504 13 173 0.0 1.6 0.15 0.33 0.33 88 1008.1
20260509211003 13 173 0.0 1.6 0.15 0.30 0.30 87 1008.1
20260509210503 13 173 0.0 1.6 0.13 0.28 0.28 87 1008.0
20260509210004 13 173 0.0 1.6 0.13 0.28 0.28 86 1007.7
20260509205504 13 173 0.0 1.6 0.08 0.23 0.23 86 1008.1
20260509204503 13 173 0.0 1.6 0.05 0.20 0.20 85 1008.0
20260509204003 13 173 0.0 1.6 0.05 0.20 0.20 84 1008.2
20260509203503 13 176 0.0 4.8 0.05 0.20 0.20 84 1008.2
20260509202504 13 184 1.6 3.2 0.03 0.18 0.18 84 1008.2
20260509202004 14 185 1.6 3.2 0.03 0.18 0.18 84 1008.1
20260509201503 14 186 0.0 3.2 0.00 0.15 0.15 83 1008.2
20260509200503 14 186 0.0 3.2 0.00 0.15 0.15 82 1008.3
20260509195504 14 220 1.6 8.0 0.00 0.15 0.15 81 1008.2
20260509194503 14 335 1.6 8.0 0.00 0.15 0.15 81 1008.2
20260509193504 14 352 0.0 3.2 0.00 0.15 0.15 81 1008.2
20260509193003 14 0 0.0 0.0 0.03 0.15 0.15 82 1008.1
20260509192503 14 0 0.0 0.0 0.03 0.15 0.15 82 1008.2
20260509192003 14 0 0.0 0.0 0.03 0.15 0.15 82 1008.1